Weather History for Mount Shasta, CA

Change the Weather History Date:

Monday, November 19, 2012

  Actual Average Record
Temperature  
Mean Temperature 42 °F 39 °F  
Max Temperature 46 °F 50 °F 78 °F (1914)
Min Temperature 38 °F 29 °F 11 °F (1985)
Degree Days  
Heating Degree Days 23 26  
Month to date heating degree days 408 435  
Since 1 July heating degree days 802 1099  
Cooling Degree Days 0 0  
Month to date cooling degree days 0 0  
Year to date cooling degree days 392 288  
Moisture  
Dew Point 38 °F    
Average Humidity 86    
Maximum Humidity 89    
Minimum Humidity 79    
Precipitation  
Precipitation 0.62 in 0.17 in 3.02 in (1966)
Month to date precipitation 2.04 2.98  
Year to date precipitation 27.71 33.26  
Sea Level Pressure  
Sea Level Pressure 30.12 in    
Wind  
Wind Speed 5 mph (ESE)    
Max Wind Speed 13 mph    
Max Gust Speed 31 mph    
Visibility 8 miles    
Events Rain    
T = Trace of Precipitation, MM = Missing Value Source: NWS Daily Summary

Daily Weather History Graph

Daily Weather History Graph

Search for Another Location

Airport:

Trip Planner

Search our weather history database for the weather conditions in past years. The results will help you decide how hot, cold, wet, or windy it might be!

Date:

Astronomy

Nov. 19, 2012 Rise Set
Actual Time 7:02 AM PST 4:46 PM PST
Civil Twilight 6:32 AM PST 5:16 PM PST
Nautical Twilight 5:59 AM PST 5:49 PM PST
Astronomical Twilight 5:26 AM PST 6:22 PM PST
Moon 12:07 PM PST (11/19) 11:21 PM PST (11/19)
Length of Visible Light 10h 43m
Length of Day
9h 43m
Waxing Crescent, 42% of the Moon is Illuminated
Nov 19
Waxing Crescent
Nov 20
First Quarter
Nov 28
Full
Dec 6
Last Quarter
Dec 13
New

Hourly Weather History & Observations

Time (PST) Temp. Windchill Dew Point Humidity Pressure Visibility Wind Dir Wind Speed Gust Speed Precip Events Conditions
12:56 AM 37.9 °F 35.5 °F 34.0 °F 86% 30.19 in 9.0 mi ESE 3.5 mph - 0.02 in Rain Light Rain
1:56 AM 37.9 °F 35.5 °F 34.0 °F 86% 30.18 in 7.0 mi East 3.5 mph - 0.03 in Rain Light Rain
2:44 AM 37.4 °F 33.8 °F 33.8 °F 87% 30.09 in 7.0 mi ESE 4.6 mph - 0.03 in Rain Light Rain
2:51 AM 37.4 °F 33.8 °F 33.8 °F 87% 30.09 in 8.0 mi ESE 4.6 mph - 0.03 in Rain Light Rain
2:56 AM 37.9 °F 35.5 °F 34.0 °F 86% 30.17 in 7.0 mi Variable 3.5 mph - 0.04 in Rain Light Rain
3:56 AM 37.9 °F 32.7 °F 34.0 °F 86% 30.17 in 6.0 mi East 6.9 mph - 0.02 in Rain Light Rain
4:56 AM 39.0 °F 36.8 °F 34.0 °F 82% 30.17 in 8.0 mi ESE 3.5 mph - 0.04 in Rain Light Rain
5:56 AM 39.0 °F 34.0 °F 35.1 °F 86% 30.17 in 6.0 mi East 6.9 mph - 0.05 in Rain Light Rain
6:56 AM 39.0 °F 35.7 °F 35.1 °F 86% 30.17 in 8.0 mi Variable 4.6 mph - 0.04 in Rain Light Rain
7:56 AM 39.0 °F 34.8 °F 35.1 °F 86% 30.18 in 4.0 mi Variable 5.8 mph - 0.04 in Rain Light Rain
8:56 AM 39.9 °F 35.8 °F 36.0 °F 86% 30.19 in 9.0 mi ESE 5.8 mph - 0.06 in Rain Light Rain
9:56 AM 41.0 °F 38.0 °F 36.0 °F 82% 30.20 in 10.0 mi Variable 4.6 mph 23.0 mph 0.02 in Rain Light Rain
10:17 AM 41.0 °F 37.1 °F 37.4 °F 87% 30.11 in 9.0 mi Variable 5.8 mph - 0.01 in Rain Light Rain
10:27 AM 41.0 °F 37.1 °F 37.4 °F 87% 30.11 in 10.0 mi ESE 5.8 mph - 0.02 in Rain Light Rain
10:56 AM 41.0 °F 37.1 °F 37.0 °F 86% 30.20 in 6.0 mi ESE 5.8 mph - 0.02 in Rain Light Rain
11:38 AM 41.0 °F 36.4 °F 37.4 °F 87% 30.10 in 7.0 mi Variable 6.9 mph - 0.02 in Rain Light Rain
11:47 AM 41.0 °F 37.1 °F 37.4 °F 87% 30.10 in 6.0 mi Variable 5.8 mph - 0.02 in Rain Light Rain
11:56 AM 41.0 °F 36.4 °F 37.9 °F 89% 30.18 in 6.0 mi Variable 6.9 mph - 0.03 in Rain Light Rain
12:56 PM 42.1 °F 37.7 °F 37.9 °F 85% 30.15 in 9.0 mi ESE 6.9 mph - 0.04 in Rain Light Rain
1:07 PM 42.8 °F 39.3 °F 37.4 °F 81% 30.07 in 7.0 mi SE 5.8 mph - 0.01 in Rain Light Rain
1:19 PM 42.8 °F 38.6 °F 37.4 °F 81% 30.07 in 6.0 mi Variable 6.9 mph - 0.01 in Rain Light Rain
1:56 PM 42.1 °F 38.4 °F 37.9 °F 85% 30.14 in 8.0 mi Variable 5.8 mph - 0.02 in Rain Light Rain
2:56 PM 42.1 °F 39.2 °F 39.0 °F 89% 30.13 in 4.0 mi Variable 4.6 mph - 0.03 in Rain Light Rain
3:52 PM 42.8 °F 38.6 °F 39.2 °F 87% 30.04 in 7.0 mi Variable 6.9 mph 20.7 mph 0.02 in   Overcast
3:56 PM 43.0 °F 38.8 °F 39.0 °F 86% 30.12 in 7.0 mi Variable 6.9 mph 21.9 mph 0.02 in   Overcast
4:56 PM 43.0 °F 38.8 °F 39.9 °F 89% 30.11 in 9.0 mi Variable 6.9 mph - 0.02 in Rain Light Rain
5:56 PM 44.1 °F 40.1 °F 39.9 °F 85% 30.11 in 10.0 mi Variable 6.9 mph 20.7 mph 0.00 in Rain Light Rain
6:10 PM 44.6 °F 41.4 °F 39.2 °F 81% 30.03 in 10.0 mi Variable 5.8 mph - 0.00 in Rain Light Rain
6:51 PM 44.6 °F 42.2 °F 41.0 °F 87% 30.03 in 5.0 mi Variable 4.6 mph - 0.00 in Rain Light Rain
6:56 PM 45.0 °F 41.2 °F 41.0 °F 86% 30.09 in 6.0 mi Variable 6.9 mph - 0.00 in Rain Light Rain
8:34 PM 44.6 °F 41.4 °F 41.0 °F 87% 30.03 in 9.0 mi Variable 5.8 mph - 0.01 in Rain Light Rain
8:56 PM 45.0 °F 43.5 °F 41.0 °F 86% 30.09 in 8.0 mi Variable 3.5 mph - 0.02 in Rain Light Rain
9:56 PM 46.0 °F 43.1 °F 41.0 °F 83% 30.09 in 5.0 mi Variable 5.8 mph - 0.02 in Rain Light Rain
10:56 PM 46.0 °F 43.9 °F 41.0 °F 83% 30.09 in 9.0 mi Variable 4.6 mph - 0.02 in   Overcast
11:56 PM 45.0 °F 41.2 °F 41.0 °F 86% 30.08 in 9.0 mi Variable 6.9 mph - 0.02 in   Overcast